Greenville, MS

2:09 AM CDT on October 22, 2017 (GMT -0500)
Mid Delta Regional

Weather History for KGLH - March, 2013

Change the Weather History Date:

Thursday, March 14, 2013

  Actual Average Record
Temperature  
Mean Temperature 49 °F 54 °F  
Max Temperature 66 °F 65 °F 86 °F (1933)
Min Temperature 32 °F 44 °F 20 °F (1993)
Degree Days  
Heating Degree Days 16 11  
Month to date heating degree days 257 179  
Since 1 July heating degree days 2260 2488  
Cooling Degree Days 0 0  
Month to date cooling degree days 0 0  
Year to date cooling degree days 10 5  
Moisture  
Dew Point 34 °F    
Average Humidity 64    
Maximum Humidity 96    
Minimum Humidity 31    
Precipitation  
Precipitation 0.00 in 0.13 in 1.55 in (1990)
Month to date precipitation 0.99 1.84  
Year to date precipitation 13.45 11.83  
Sea Level Pressure  
Sea Level Pressure 30.36 in    
Wind  
Wind Speed 7 mph (SSE)    
Max Wind Speed 16 mph    
Max Gust Speed 20 mph    
Visibility 10 miles    
Events      
T = Trace of Precipitation, MM = Missing Value Source: NWS Daily Summary

Daily Weather History Graph

Daily Weather History Graph

Search for Another Location

Airport or City:

Trip Planner

Search our weather history database for the weather conditions in past years. The results will help you decide how hot, cold, wet, or windy it might be!

Date:

Astronomy

Mar. 14, 2013 Rise Set
Actual Time 7:15 AM CDT 7:11 PM CDT
Civil Twilight 6:50 AM CDT 7:36 PM CDT
Nautical Twilight 6:21 AM CDT 8:04 PM CDT
Astronomical Twilight 5:52 AM CDT 8:33 PM CDT
Moon 8:39 AM CDT (3/14) 10:15 PM CDT (3/14)
Length of Visible Light 12h 45m
Length of Day
11h 55m
Waxing Crescent, 9% of the Moon is Illuminated
Mar 14
Waxing Crescent
Mar 19
First Quarter
Mar 27
Full
Apr 2
Last Quarter
Apr 10
New

Hourly Weather History & Observations

Time (CDT) Temp. Windchill Dew Point Humidity Pressure Visibility Wind Dir Wind Speed Gust Speed Precip Events Conditions
12:53 AM 41.0 °F 39.0 °F 33.1 °F 73% 30.43 in 10.0 mi ESE 3.5 mph - N/A   Clear
1:53 AM 39.0 °F 35.7 °F 32.0 °F 76% 30.41 in 10.0 mi East 4.6 mph - N/A   Clear
2:53 AM 39.0 °F 36.8 °F 32.0 °F 76% 30.41 in 10.0 mi SE 3.5 mph - N/A   Clear
3:53 AM 35.1 °F - 30.9 °F 85% 30.42 in 10.0 mi Calm Calm - N/A   Clear
4:53 AM 37.9 °F - 30.9 °F 76% 30.42 in 10.0 mi Calm Calm - N/A   Clear
5:53 AM 34.0 °F - 32.0 °F 92% 30.43 in 10.0 mi Calm Calm - N/A   Clear
6:53 AM 33.1 °F 30.0 °F 30.9 °F 92% 30.44 in 10.0 mi ESE 3.5 mph - N/A   Clear
7:53 AM 34.0 °F 29.8 °F 32.0 °F 92% 30.44 in 10.0 mi ESE 4.6 mph - N/A   Clear
8:53 AM 44.1 °F 41.5 °F 33.1 °F 65% 30.47 in 10.0 mi SSE 4.6 mph - N/A   Clear
9:53 AM 48.0 °F - 32.0 °F 54% 30.46 in 10.0 mi SSE 8.1 mph - N/A   Clear
10:53 AM 51.1 °F - 30.9 °F 46% 30.45 in 10.0 mi SE 6.9 mph - N/A   Clear
11:53 AM 53.6 °F - 32.0 °F 44% 30.41 in 10.0 mi SSE 8.1 mph - N/A   Clear
12:53 PM 57.9 °F - 33.1 °F 39% 30.41 in 10.0 mi South 5.8 mph - N/A   Clear
1:53 PM 60.1 °F - 30.0 °F 32% 30.38 in 10.0 mi Variable 4.6 mph - N/A   Clear
2:53 PM 63.0 °F - 33.1 °F 33% 30.35 in 10.0 mi Variable 5.8 mph - N/A   Clear
3:53 PM 64.9 °F - 35.1 °F 33% 30.30 in 10.0 mi South 12.7 mph 19.6 mph N/A   Clear
4:53 PM 64.9 °F - 35.1 °F 33% 30.28 in 10.0 mi SW 11.5 mph - N/A   Clear
5:53 PM 64.0 °F - 34.0 °F 33% 30.28 in 10.0 mi SW 12.7 mph - N/A   Clear
6:53 PM 57.0 °F - 39.0 °F 51% 30.27 in 10.0 mi South 8.1 mph - N/A   Clear
7:53 PM 54.0 °F - 39.0 °F 57% 30.25 in 10.0 mi South 8.1 mph - N/A   Clear
8:53 PM 51.1 °F - 37.9 °F 61% 30.25 in 10.0 mi North - - N/A   Clear
9:53 PM 50.0 °F - 37.9 °F 63% 30.24 in 10.0 mi SSW 10.4 mph - N/A   Clear
10:53 PM 55.0 °F - 37.9 °F 53% 30.23 in 10.0 mi SSW 11.5 mph - N/A   Clear
11:53 PM 54.0 °F - 37.9 °F 55% 30.22 in 10.0 mi SSW 10.4 mph - N/A   Clear